"Pseudo-MPEC" for C0E8LV5

Created 2022 Nov 25 13:22:06 UT using Find_Orb

Click here for an explanation of pseudo-MPECs

 
 Astrometry: 
     C0E8LV5* C2022 11 24P;y\?/gl[Qd_h;Guk=h4C#x$J9kO+AkI@'B)n4,*fJC.@k)1.Ky+V00
     C0E8LV5  C2022 11 24OQdSDU\PQMSK/vU#d;a*?_8_PuJ^GICv-)EceOnm(?XNYCiuMcZfV00
     C0E8LV5  C2022 11 24H0asH.vk^wyAvaK0.-)0fXC/!r\dRg:d60egc`cYGhCUPL?*=K`5V00
     C0E8LV5  C2022 11 24a$hk^\+#bv3'cPh'/iI,yyX;=5@#K\[mMQ\2TxbAKHa470@6dy/YV00
     C0E8LV5 mC2022 11 24.34925103 06 02.862+31 58 48.25   ~BO8q 20.25GVNEOCPI52
     C0E8LV5 mC2022 11 24.35163503 06 02.999+31 58 22.80   ~BO8q 20.36GVNEOCPI52
     C0E8LV5 mC2022 11 24.35186303 06 03.038+31 58 20.14   ~BO8q 19.81GVNEOCPI52
     C0E8LV5  C2022 11 24pDTMI6.j[HHV$0R^j#,QlD24ew_[v9.E)qAstrometrys,dSTtX?F51
     C0E8LV5  C2022 11 24L/*#;v!W.5]N3v/c6r.si$Guh*=X#iOfs,'I-^XBu`/rIrbA[[d_F51
     C0E8LV5  C2022 11 24(:()DE;!hDgPoe7-w4)]CU-pq(+Rmj5aLr+Kg`:fM0pvu.*MBg0?F51
     C0E8LV5 KC2022 11 24vqimtyG?4.E`mqNSe:u0#paC:(.Z$%#qYxpZq_hE53MhRgIMRxJgL06
     C0E8LV5 KC2022 11 24ueI)yMcxvTHWK-yB-5/Z#b5T,gXMcwPFv#cSU`a$qgep/L+-cZciL06
     C0E8LV5 KC2022 11 24pqP]OWM.G#e0VApEA+d8n7Cfx`Ga*qXZ.ak/4yV8e@H`k@_2%IJsL06
     C0E8LV5 KC2022 11 24:H`8.ay8X1LfsrOaq_S6PKv5]9buS05lrvEe.1ku^c$E5dyKDUVo104
     C0E8LV5 KC2022 11 24QkR-*n]8$r^QI)pWna,RKex:OQes,uB7gtEKi\=G.!RW_HiSdO,5104
     C0E8LV5 KC2022 11 24:^OC5npuD8f1ge6VGTWV/d3n2VHv`.eTlnx[=nVaaBLN.^Up;e%SK63
     C0E8LV5 KC2022 11 24Nl/PBI^b$PVeMJAh1:_1C['9Garjc@a3%I7/Ymua=pO)4Dh:UfP6104
     C0E8LV5 KC2022 11 24%QRQ+BpHb1[AZL+m?ZT7P^@?(bY7(cMa:%9y!cHt]_.0D!)$0tUnK63
     C0E8LV5 KC2022 11 24ntPW-g9K:!etn?OWgmQJ-_4Q`r0Jlea9nr51K*fk$Z0-7w!h!b'jK63
     C0E8LV5 KC2022 11 24mBb#l.BeI[Yu\Ia-SMx1..redacted;y_sB;[I_Ok!,^/OIY0\.FL01
     C0E8LV5 KC2022 11 24+o.8C,I+oB*.;L#QvZA=f%';(:?H$4=au@ljbvRX#0/yLi@jUKK\L01
     C0E8LV5 pC2022 11 24e+!31ZQFQ8Aq^e45ql8[!k.DeRS?#$VhcW!ukSuBE:^[(sclick,L01
     C0E8LV5 pC2022 11 24tehOVvsu(Lo_+KMn\(iN5dp5Zdsoll@1joA@hHoe-6here4nsp8GL01
     C0E8LV5 KC2022 11 24`Vquk\n`(:bIKRFr-btVN[VI$7@p8M0Url#Xt=ACBMh#*NY20i+Y221
     C0E8LV5 KC2022 11 24mBS[3kkh=7Euep/^xKR(eaQ6P\JwYW;:E`_g#v3yaOIJhGOHyW3ZL01
     C0E8LV5 KC2022 11 24.90940903 07 02.82 +30 15 52.9    ~BOMb       XNEOCP595
     C0E8LV5 KC2022 11 24?JHUtF4,a(Qg%c+X%[(OI)YK]69=/Xforg13WHs*SurKT5W3:8;D221
     C0E8LV5 KC2022 11 24.91802603 07 03.36 +30 14 15.2    ~BOMb 19.6 GXNEOCP595
     C0E8LV5 KC2022 11 24;x#f[m%xV7@h%\y'^L17G]bssige*1Z\hG6plrjZwLZXd,C!.[dT221
     C0E8LV5 KC2022 11 24kSuW7a7s)8k?s2k,lB3TQgw-O2K9@pFM]#?0`WV*L8O2^qEe%w,W221
     C0E8LV5 KC2022 11 24*[i/t0YtL-W)AC]QIB#aq6FC5eHfK%J,I3ZYmT_TeBZ,e=859;P1Z99
     C0E8LV5 KC2022 11 24+PTAo-@\XL+k`8:#l%yLfD$-]s^n%hHF^%-X;?+Fek#`up?tB+8@958
     C0E8LV5 KC2022 11 24c$]^rudTICoi(;TM3Wg.'-(J8tjVtHm2u/9pKWJtTs=6hK!)+/d8Z99
     C0E8LV5 KC2022 11 24kh+e3a:[TV=shQ*_#Zvk+:lhyU-8Fuwf.^jl`/Z'Q1empi'F4g`[Z99
     C0E8LV5 KC2022 11 24U:6R]8)IFA)j3iEvIMZkt+4+IiF*x`@;l#SuS/x)yC%I,7:BO\'R958
     C0E8LV5 KC2022 11 24KM\J3V?%Zr:%$#yWXYIdpElG'ty-G5W[kP:%;@'1D_1!_i4/.+'-958
     C0E8LV5 KC2022 11 24.96524603 07 08.088+30 05 11.29   ~BONb 19.4 GVNEOCPJ95
     C0E8LV5 KC2022 11 24.96904203 07 08.357+30 04 28.06   ~BONb 19.5 GVNEOCPJ95
     C0E8LV5 KC2022 11 24.97119803 07 08.498+30 04 03.83   ~BONb 19.8 GVNEOCPJ95
     C0E8LV5 KC2022 11 24.97402903 07 08.722+30 03 30.96   ~BONb 20.0 GVNEOCPJ95
     C0E8LV5 KC2022 11 25Q(4K[AspR.;(HA*=;fO9K:n0](skgx?\gj=b=3o%OQNJ6EetXMhL734
     C0E8LV5 KC2022 11 257L.eqveJo7_?SWSH\\d`60K8^]?M/0SquJG;t=eV\?3igI%AheWR734
     C0E8LV5 KC2022 11 25jI6MB=6Sp.NuUCor`5(wT;fuF=,et8VD)]fFtexplanationsq\l734
     C0E8LV5 KC2022 11 25kE;=,PE)*:IYIw?5qXEoa(6a/X81J*W@G=pGUa#5@'2:)raS3iit734

Station data:
(104) San Marcello Pistoiese  (N44.064178 E10.803750)  Italy.  Observers P.
   Bacci, M. Maestripieri. Measurers P. Bacci, L. Tesi, G. Fagioli. 0.60-m
   reflector + CCD.
(221) IAS Observatory, Hakos  (S23.236367 E16.361700)  Namibia.  Observers D.
   Husar, L. Demetz. Measurer D. Husar. 0.2-m f/3 Riccardi-Honders + CCD0.5-m
   f/6.8 Corrected Dall-Kirkham + CCD.
(595) Farra d'Isonzo  (N45.915731 E13.525780)  Italy.  Observers S. Aschi, E.
   Pettarin, G. Panterotto. Measurers S. Aschi, E. Pettarin. 0.40-m f/5.15
   reflector + CCD.
(734) Farpoint Observatory, Eskridge  (N38.890104 W96.001400)  US/Kansas.
   Observer G. Hug. 0.69-m reflector + CCD.
(958) Observatoire de Dax  (N43.693324 W1.030390)  France.  Observer P.
   Dupouy. 0.32-m Schmidt-Cassegrain.
(F51) Pan-STARRS 1, Haleakala  (N20.707234 W156.255910)  US/Hawaii.
   Observers J. Bulger, T. Lowe, A. Schultz, M. Willman. Measurers K.
   Chambers, S. Chastel, T. de Boer, L. Denneau, J. Fairlamb, H. Flewelling,
   M. Huber, C.-C. Lin, E. Magnier, Y. Ramanjooloo, R. Wainscoat, R. Weryk.
   1.8-m Ritchey-Chrétien + CCD.
(I52) Steward Observatory, Mt. Lemmon Station  (N32.442544 W110.788920)
   US/Arizona.  Observers T. A. Pruyne, B. M. Africano, E. J. Christensen, G.
   A. Farneth, D. C. Fuls, A. R. Gibbs, A. D. Grauer, H. Gröller, J. A.
   Johnson, R. A. Kowalski, S. M. Larson, G. J. Leonard, D. Rankin, R. L.
   Seaman, F. C. Shelly, K. W. Wierzchoś. 1.0-m reflector + CCD.
(J95) Great Shefford  (N51.474969 W1.447003)  UK/England.  Observer P.
   Birtwhistle. 0.41-m f/6.3 Schmidt-Cassegrain + CCD.
(K63) G. Pascoli Observatory, Castelvecchio Pascoli  (N44.082407 E10.462000)
   Italy.  Observer R. Bacci. 0.41-m f/3.2 Newtonian reflector + CCD.
(L01) Višnjan Observatory, Tičan  (N45.290897 E13.749300)  Croatia.
   Observers K. Korlević, D. Pujagic, V. Dobos. Measurers D. Pujagic, K.
   Korlević. 1.0-m f/2.9 reflector + CCD.
(L06) Sormano 2 Observatory, Bellagio Via Lattea  (N45.970100 E9.254030)
   Italy.  Observer G. Ventre. Measurers G. Ventre, P. Sicoli. 0.28-m f/10
   reflector + CCD.
(V00) Kitt Peak-Bok  (N31.963125 W111.600190)  US/Arizona.  Observers T. A.
   Pruyne, B. M. Africano, E. J. Christensen, G. A. Farneth, D. C. Fuls, A.
   R. Gibbs, A. D. Grauer, H. Gröller, J. A. Johnson, R. A. Kowalski, S. M.
   Larson, G. J. Leonard, D. Rankin, R. L. Seaman, F. C. Shelly, K. W.
   Wierzchoś. 2.25-m reflector + CCD.
(Z99) Clixby Observatory, Cleethorpes  (N53.546059 W0.021260)  UK/England.
   Observer A. Mickleburgh. 0.36-m f/8 Schmidt-Cassegrain + CCD.

Orbital elements:  C0E8LV5
   Perihelion 2023 Jan 13.68572 +/- 0.032 TT = 16:27:26 (JD 2459958.18572)
Epoch 2022 Nov 25.0 TT = JDT 2459908.5   Earth MOID: 0.0647   Ma: 0.0014
M 329.17817420 +/- 0.07             (J2000 ecliptic)          AutoNEOCP
n   0.62033570 +/- 0.00118          Peri.  230.78102 +/- 0.047
a   1.36160622 +/- 0.00172          Node   244.62004 +/- 0.0022
e   0.2839591 +/- 0.00102           Incl.   17.87911 +/- 0.034
P   1.59/580.32d           H 24.2   G  0.15   U  8.2
q 0.97496565 +/- 0.000329    Q 1.74824679 +/- 0.00358
From 44 observations 2022 Nov. 24-25 (21.4 hr); mean residual 0".35
Residuals in arcseconds: 
221124 V00  .14+  .10+    221124 K63  .35+  .18-    221124 Z99  .19-  .05-    
221124 V00  .18-  .34-    221124 104  .38-  .07-    221124 958  .32+  .89+    
221124 V00  .07-  .08-    221124 K63  .38-  1.4-    221124 Z99  .40-  .51+    
221124 V00  .06-  .21+    221124 K63  .43-  .09-    221124 Z99  .05+  .06-    
221124 I52  .09-  .32-    221124 L01  .21-  .30+    221124 958  .08-  1.1+    
221124 I52  .31-  .10+    221124 L01  .26-  .54+    221124 958  .74-  .33-    
221124 I52  .00   .08-    221124 L01  .07+  .69+    221124 J95  .29+  .07-    
221124 F51  .05-  .09+    221124 L01  .17-  .28+    221124 J95  .21+  .16-    
221124 F51  .06-  .04+    221124 221  .34+  .13+    221124 J95  .02+  .13+    
221124 F51  .06-  .17+    221124 L01  .05+  .30+    221124 J95  .26+  .54-    
221124 L06  .39+  .33+    221124 595  .20+  .30+    221125 734  .79-  .42+    
221124 L06  .03+  .53+    221124 221  .11+  .08+    221125 734  .62-  .04-    
221124 L06  .17+  .13+    221124 595  .46-  .09-    221125 734  .51-  .14+    
221124 104  .21-  .05+    221124 221  .12+  .01+    221125 734  .43-  .12+    
221124 104  .03-  .05-    221124 221  .26+  .15-    

Ephemerides (geocentric):
Date (UTC) HH   RA             Dec           delta  r     elong  mag " sig PA
---- --------  ------------   ------------  ------ ------ -----  --- --------
2022 11 25 13  03 08 08.296   +28 13 50.78  .08610 1.0707 165.4 19.8 .113 138
2022 11 25 14  03 08 12.705   +28 05 31.37  .08594 1.0706 165.4 19.8 .118 137
2022 11 25 15  03 08 17.125   +27 57 10.06  .08578 1.0704 165.5 19.8 .123 136
2022 11 25 16  03 08 21.554   +27 48 46.86  .08562 1.0703 165.5 19.8 .128 135
2022 11 25 17  03 08 25.994   +27 40 21.75  .08546 1.0701 165.6 19.8 .133 134
2022 11 25 18  03 08 30.443   +27 31 54.75  .08531 1.0700 165.6 19.8 .137 134
2022 11 25 19  03 08 34.902   +27 23 25.84  .08515 1.0698 165.6 19.8 .142 133
2022 11 25 20  03 08 39.371   +27 14 55.03  .08499 1.0697 165.7 19.8 .147 133
2022 11 25 21  03 08 43.850   +27 06 22.31  .08484 1.0695 165.7 19.8 .152 132
2022 11 25 22  03 08 48.339   +26 57 47.67  .08468 1.0694 165.8 19.7 .156 131
2022 11 25 23  03 08 52.838   +26 49 11.12  .08453 1.0692 165.8 19.7 .161 131
2022 11 26 00  03 08 57.347   +26 40 32.66  .08438 1.0691 165.8 19.7 .166 130
2022 11 26 01  03 09 01.866   +26 31 52.28  .08422 1.0690 165.9 19.7 .170 130
2022 11 26 02  03 09 06.395   +26 23 09.98  .08407 1.0688 165.9 19.7 .175 130
2022 11 26 03  03 09 10.934   +26 14 25.76  .08392 1.0687 165.9 19.7 .180 129
2022 11 26 04  03 09 15.483   +26 05 39.61  .08377 1.0685 166.0 19.7 .184 129
2022 11 26 05  03 09 20.042   +25 56 51.54  .08362 1.0684 166.0 19.7 .189 128
2022 11 26 06  03 09 24.611   +25 48 01.54  .08347 1.0682 166.0 19.7 .194 128
2022 11 26 07  03 09 29.190   +25 39 09.62  .08332 1.0681 166.0 19.7 .198 128
2022 11 26 08  03 09 33.779   +25 30 15.76  .08317 1.0679 166.1 19.7 .203 127
2022 11 26 09  03 09 38.378   +25 21 19.98  .08302 1.0678 166.1 19.7 .207 127
2022 11 26 10  03 09 42.988   +25 12 22.26  .08288 1.0677 166.1 19.7 .212 127
2022 11 26 11  03 09 47.607   +25 03 22.61  .08273 1.0675 166.1 19.7 .216 126
2022 11 26 12  03 09 52.236   +24 54 21.03  .08259 1.0674 166.1 19.7 .220 126
2022 11 26 13  03 09 56.876   +24 45 17.51  .08244 1.0672 166.2 19.7 .225 126
2022 11 26 14  03 10 01.526   +24 36 12.05  .08230 1.0671 166.2 19.7 .229 126
2022 11 26 15  03 10 06.186   +24 27 04.66  .08215 1.0669 166.2 19.7 .233 125
2022 11 26 16  03 10 10.856   +24 17 55.33  .08201 1.0668 166.2 19.7 .238 125
2022 11 26 17  03 10 15.536   +24 08 44.07  .08187 1.0666 166.2 19.7 .242 125
2022 11 26 18  03 10 20.227   +23 59 30.86  .08172 1.0665 166.2 19.6 .246 124
2022 11 26 19  03 10 24.927   +23 50 15.72  .08158 1.0664 166.2 19.6 .251 124
2022 11 26 20  03 10 29.638   +23 40 58.64  .08144 1.0662 166.2 19.6 .255 124
2022 11 26 21  03 10 34.359   +23 31 39.63  .08130 1.0661 166.2 19.6 .259 124
2022 11 26 22  03 10 39.090   +23 22 18.67  .08116 1.0659 166.2 19.6 .263 124
2022 11 26 23  03 10 43.832   +23 12 55.78  .08102 1.0658 166.2 19.6 .267 123
2022 11 27 00  03 10 48.584   +23 03 30.96  .08089 1.0656 166.2 19.6 .271 123
2022 11 27 01  03 10 53.346   +22 54 04.19  .08075 1.0655 166.2 19.6 .275 123
2022 11 27 02  03 10 58.118   +22 44 35.49  .08061 1.0654 166.2 19.6 .279 123
2022 11 27 03  03 11 02.901   +22 35 04.86  .08048 1.0652 166.2 19.6 .283 123
2022 11 27 04  03 11 07.694   +22 25 32.29  .08034 1.0651 166.2 19.6 .287 122
2022 11 27 05  03 11 12.497   +22 15 57.79  .08021 1.0649 166.2 19.6 .291 122
2022 11 27 06  03 11 17.310   +22 06 21.36  .08007 1.0648 166.1 19.6 .295 122
2022 11 27 07  03 11 22.134   +21 56 43.00  .07994 1.0646 166.1 19.6 .299 122
2022 11 27 08  03 11 26.968   +21 47 02.71  .07981 1.0645 166.1 19.6 .303 122
2022 11 27 09  03 11 31.813   +21 37 20.49  .07968 1.0644 166.1 19.6 .307 121
2022 11 27 10  03 11 36.667   +21 27 36.35  .07955 1.0642 166.1 19.6 .310 121
2022 11 27 11  03 11 41.532   +21 17 50.28  .07942 1.0641 166.0 19.6 .314 121
2022 11 27 12  03 11 46.408   +21 08 02.29  .07929 1.0639 166.0 19.6 .318 121